www.pogodaiklimat.ru

Погода и климат >> Архив погоды >> Малайзия >> Kuala Lumpur


АРХИВ ПОГОДЫ в Kuala Lumpur

Время (UTC), дата Ветер
(напр.,м/с)
 
Видим.   Явления Облачность Т
(С)
Тd
(С)
f
(%)
Тe
(С)
Тes
(С)
Комфортность P
(гПа)
Po
(гПа)
Тmin
(С)
Tmax
(С)
R
(мм)
S
(см)
18 20.03 СЗ 2 8000 м мгла 8/3 750 м
[Sc Ac lent Ci sp]
+25.4 +23.8 91 +35 +35 очень
душно
1011.5 1009.0
21 20.03 С 1 8000 м мгла 8/3 750 м
[Sc Ac trans Ci fib]
+24.4 +23.3 94 +33 +33 очень
душно
1010.9 1008.4
00 21.03 СЗ 2 8000 м мгла 8/3 750 м
[Sc Ac trans Ci fib]
+24.5 +23.2 92 +33 +33 очень
душно
1011.8 1009.3 +23.9 5
03 21.03 СЗ 5 15 км мгла 8/1 600 м
[Cu hum Ac trans Ci fib]
+30.8 +22.5 61 +40 +44 очень
душно
1013.1 1010.6
06 21.03 З 4 16 км мгла 8/4 540 м
[Cu med, cong Ac trans Ci fib]
+32.4 +23.9 61 +44 +50 опасность
перегрева
1010.3 1007.9
09 21.03 З 6 12 км мгла 8/4 540 м
[Cu med, cong Ac trans Ci fib]
+32.3 +23.6 60 +43 +44 опасность
перегрева
1008.2 1005.8
12 21.03 З 3 10 км мгла 8/1 800 м
[Sc Ac lent Ci sp]
+29.3 +24.6 76 +42 +42 опасность
перегрева
1009.2 1006.7 +33.7
15 21.03 С 2 10 км мгла 8/1 800 м
[Sc diur, vesp Ac lent Ci sp]
+28.4 +24.6 80 +40 +40 очень
душно
1011.8 1009.3
18 21.03 СЗ 2 10 км мгла 8/4 900 м
[Sc diur, vesp As op Cs]
+27.4 +24.3 83 +38 +38 очень
душно
1010.4 1007.9
21 21.03 З 1 10 км зарница 8/1 500 м
[Cb cap Ac lent Ci sp]
+26.0 +23.9 88 +36 +36 очень
душно
1009.5 1007.0
00 22.03 штиль 0 12 км мгла 8/1 500 м
[Cb cap Ac lent Ci sp]
+26.1 +23.9 88 +36 +37 очень
душно
1010.3 1007.8 +24.5
03 22.03 СЗ 3 15 км мгла 8/1 540 м
[Cu med, cong Ac trans Ci sp]
+31.4 +22.9 61 +42 +49 опасность
перегрева
1011.7 1009.2
06 22.03 СЗ 4 18 км мгла 8/3 570 м
[Cu med, cong Ac trans Ci sp]
+34.6 +21.2 46 +42 +49 опасность
перегрева
1008.4 1006.0
09 22.03 З 6 18 км мгла 8/4 500 м
[Cb cap Ac trans Ci sp]
+33.0 +24.3 60 +45 +46 опасность
перегрева
1006.4 1004.0
12 22.03 З 2 10 км зарница 8/5 150 м
[Cb cap Ac lent Ci sp]
+29.2 +25.2 79 +42 +42 опасность
перегрева
1008.8 1006.3 +35.7
15 22.03 В 1 10 км мгла 8/3 800 м
[Sc Ac lent Ci sp]
+27.4 +23.6 80 +37 +37 очень
душно
1010.8 1008.3
18 22.03 С 1 9000 м мгла 8/3 750 м
[Sc Ac lent Ci sp]
+27.4 +25.0 87 +39 +39 очень
душно
1010.1 1007.6
21 22.03 штиль 0 8000 м мгла 8/3 800 м
[Sc Ac lent Ci sp]
+27.1 +24.9 88 +39 +39 очень
душно
1009.2 1006.7
00 23.03 ЮВ 1 13 км мгла 8/1 600 м
[Cu hum Ac trans Ci sp]
+27.2 +24.5 85 +38 +39 очень
душно
1010.7 1008.2 +26.1
03 23.03 СВ 2 10 км мгла 8/3 570 м
[Cu med, cong Ac trans Ci fib]
+29.8 +24.5 73 +42 +49 опасность
перегрева
1011.9 1009.4
06 23.03 Ю 2 12 км мгла 8/4 570 м
[Cu med, cong Ac trans Ci fib]
+33.2 +22.8 55 +43 +52 опасность
перегрева
1008.6 1006.2
09 23.03 З 4 10 км мгла 8/5 500 м
[Cb cap Ac trans Ci sp]
+33.0 +25.2 64 +47 +49 опасность
перегрева
1006.3 1003.9
12 23.03 ЮВ 2 9000 м в посл. час гроза {ливн. осадки} 8/4 300 м
[Sc Ac lent Ci sp]
+28.2 +25.8 87 +42 +42 опасность
перегрева
1008.1 1005.6 +34.7 3
15 23.03 штиль 0 6000 м зарница 8/4 500 м
[Cb cap Ac trans Ci sp]
+27.8 +26.2 91 +42 +42 опасность
перегрева
1010.6 1008.1
18 23.03 СЗ 2 5000 м мгла 8/3 800 м
[Sc Ac lent Ci sp]
+27.5 +25.7 90 +41 +41 опасность
перегрева
1010.0 1007.5
21 23.03 штиль 0 4000 м мгла 8/4 500 м
[Cb cap Ac lent Ci sp]
+27.0 +25.6 92 +40 +40 очень
душно
1008.9 1006.4
00 24.03 З 3 3000 м дождь 10/6 90 м
[Cb cap Ac und Cs]
+27.1 +25.3 90 +39 +40 очень
душно
1011.2 1008.7 +27.0 4
03 24.03 ЮВ 2 1600 м слабый дождь {гроза} 10/5 180 м
[Cb cap Ac und Cs]
+27.0 +25.2 90 +39 +43 очень
душно
1013.0 1010.5
06 24.03 Ю 2 12 км осадки на расстоянии {гроза, дождь} 10/4 420 м
[Cb cap Ac und Ci]
+29.8 +23.6 69 +40 +47 очень
душно
1011.4 1008.9 19
09 24.03 СЗ 1 15 км мгла 8/4 500 м
[Cb cap Ac und Ci sp]
+30.0 +23.8 69 +41 +44 опасность
перегрева
1008.7 1006.2
12 24.03 СЗ 3 8000 м мгла 8/3 800 м
[Sc Ac lent Ci sp]
+28.1 +24.9 83 +40 +40 очень
душно
1010.3 1007.8 +30.4
15 24.03 С 1 6000 м мгла 8/3 800 м
[Sc Ac trans Ci fib]
+26.9 +24.6 87 +38 +38 очень
душно
1011.8 1009.3
18 24.03 СЗ 2 6000 м мгла 8/3 750 м
[Sc Ac lent Ci fib]
+26.4 +24.7 90 +37 +37 очень
душно
1011.4 1008.9
21 24.03 штиль 0 6000 м мгла 8/4 750 м
[Sc Ac trans Ci fib]
+25.7 +24.3 92 +36 +36 очень
душно
1010.2 1007.7
00 25.03 штиль 0 6000 м мгла 8/1 600 м
[Cu hum Ac trans Ci fib]
+25.6 +24.2 92 +35 +36 очень
душно
1011.5 1009.0 +25.1 19
03 25.03 З 3 10 км мгла 9/4 570 м
[Cu med, cong Ac trans Ci sp]
+30.9 +23.7 66 +42 +47 опасность
перегрева
1013.1 1010.6
06 25.03 З 3 15 км мгла 8/3 570 м
[Cu med, cong Ac trans Ci sp]
+34.2 +23.4 53 +45 +53 опасность
перегрева
1009.5 1007.1
09 25.03 З 5 15 км мгла 8/4 570 м
[Cu med, cong Ac trans Ci sp]
+33.8 +25.3 61 +48 +50 опасность
перегрева
1006.6 1004.2
12 25.03 СВ 2 8000 м гроза, ливневой дождь 10/5 480 м
[Cb cap Ac lent Cs]
+27.0 +24.9 88 +39 +39 очень
душно
1009.4 1006.9 +34.8 2
15 25.03 З 1 8000 м мгла {гроза, дождь} 8/1 900 м
[Sc diur, vesp Ac lent Ci sp]
+26.5 +24.6 89 +37 +37 очень
душно
1011.5 1009.0
18 25.03 СВ 1 8000 м мгла {гроза, дождь} 8/3 900 м
[Sc diur, vesp Ac lent Ci sp]
+26.1 +24.7 92 +37 +37 очень
душно
1011.4 1008.9
21 25.03 штиль 0 8000 м зарница 8/3 500 м
[Cb cap Ac lent Ci sp]
+25.9 +24.6 93 +37 +37 очень
душно
1009.9 1007.4
00 26.03 СЗ 1 9000 м мгла 8/5 500 м
[Cb cap Ac lent Ci sp]
+26.2 +24.8 92 +37 +38 очень
душно
1011.4 1008.9 +25.6 2
03 26.03 В 2 12 км мгла 8/4 500 м
[Cb cap Ac trans Ci sp]
+31.8 +23.8 63 +43 +49 опасность
перегрева
1013.1 1010.6
06 26.03 Ю 2 18 км мгла 8/5 500 м
[Cb cap Ac trans Ci sp]
+34.6 +22.4 49 +44 +51 опасность
перегрева
1009.8 1007.4
09 26.03 В 2 8000 м слабый ливневой дождь, в посл. час гроза 8/6 150 м
[Cb cap Ac lent Cs]
+26.3 +24.5 90 +37 +39 очень
душно
1009.0 1006.5
12 26.03 В 1 9000 м мгла 8/3 800 м
[Sc Ac lent Cs]
+26.4 +24.6 90 +37 +37 очень
душно
1009.8 1007.3 +34.7 6
15 26.03 штиль 0 9000 м мгла 8/1 800 м
[Sc Ac trans Ci sp]
+26.5 +25.1 92 +38 +38 очень
душно
1012.6 1010.1
18 26.03 Ю 2 8000 м мгла 8/1 800 м
[Sc Ac trans Ci fib]
+26.0 +24.6 92 +37 +37 очень
душно
1011.7 1009.2
21 26.03 штиль 0 7000 м зарница 8/3 500 м
[Cb cap Ac trans Ci fib]
+25.2 +24.0 93 +35 +35 очень
душно
1010.5 1008.0
00 27.03 В 1 8000 м мгла 8/4 60 м
[St Ac trans Ci sp]
+25.7 +24.4 93 +36 +36 очень
душно
1011.9 1009.4 +24.9 6
03 27.03 В 2 12 км мгла 8/3 570 м
[Cu med, cong Ac trans Ci fib]
+30.9 +23.0 63 +41 +48 опасность
перегрева
1013.0 1010.5
06 27.03 С 2 15 км мгла 8/4 570 м
[Cu med, cong Ac trans Ci fib]
+34.0 +23.0 53 +44 +53 опасность
перегрева
1010.5 1008.1
09 27.03 ЮЗ 4 12 км в посл. час ливневой дождь 8/4 500 м
[Cb cap Ac lent Ci sp]
+32.4 +24.7 64 +45 +47 опасность
перегрева
1007.9 1005.5
12 27.03 СЗ 3 8000 м гроза без осадков {дождь} 8/5 240 м
[Cb cap Ac lent Cs]
+25.5 +23.0 86 +34 +34 очень
душно
1010.6 1008.1 +34.0 46
15 27.03 Ю 1 10 км зарница 8/4 500 м
[Cb cap Ac und Ci sp]
+25.9 +24.1 90 +36 +36 очень
душно
1013.4 1010.9

 

Местоположение метеостанции Kuala Lumpur (Малайзия): широта 3.12 долгота 101.55 высота над уровнем моря 22 м.

В архиве по умолчанию представлена погода в Kuala Lumpur за последнюю неделю. Архивные данные за месяц целиком и за предыдущие месяцы, начиная с января 2011 года, Вы можете получить, выбрав интересующий диапазон дат из раскрывающегося списка и нажав кнопку "Ввод!".

Внимание! Время в таблицах - всемирное. Для получения местного времени необходимо прибавить поправку, которая в Kuala Lumpur равна 7 ч.

Смотрите также архив погоды в соседних городах и на ближайших метеорологических станциях:

Погода в Kuala Lumpur Int Airport (Малайзия) (48 км)
Погода в Malacca (Малайзия) (122 км)
Погода в Cameron Highlands (Малайзия) (151 км)
Погода в Sitiawan (Малайзия) (155 км)
Погода в Ipoh (Малайзия) (169 км)
Погода в Kuantan (Малайзия) (198 км)
Погода в Penang (Малайзия) (282 км)
Погода в Johore Bharu / Senai (Малайзия) (288 км)
Погода в Butterworth Air Base (Малайзия) (292 км)
Погода в Pekanbaru (Индонезия) (295 км)

Пояснения к столбцам:

Ветер - указаны скорость ветра в м/с - средняя за 10 мин, порывы в срок и между сроками (в фигурных скобках) и направление, откуда дует ветер: С - северный, СВ - северо-восточный, В - восточный, ЮВ - юго-восточный, Ю - южный, ЮЗ - юго-западный, З - западный, СЗ - северо-западный.
Видимость - горизонтальная дальность видимости в метрах или километрах. При видимости от 1 до 10 км при отсутствии осадков обычно наблюдается дымка, при ухудшении видимости до 1 км и менее - туман. В сухую погоду видимость может ухудшаться дымом, пылью или мглою.
Явления - указаны атмосферные явления, наблюдавшиеся в срок или в последний час перед сроком; фигурными скобками обозначены явления, наблюдавшиеся между сроками (за 1-3 часа до срока); квадратными скобками обозначены град или гололедные отложения с указанием их диаметра в мм.
Облачность - указаны через наклонную черту общая и нижняя облачность в баллах и высота нижней границы облаков в метрах; квадратными скобками обозначены формы облаков: Ci - перистые, Cs - перисто-слоистые, Cc - перисто-кучевые, Ac - высококучевые, As - высокослоистые, Sc - слоисто-кучевые, Ns - слоисто-дождевые, Cu - кучевые, Cb - кучево-дождевые. Подробнее классификацию облаков см. в Атласе облаков (PDF).
T - Температура воздуха - температура, измеренная на высоте 2 м над землей.
Td - Температура точки росы - температура, при понижении до которой содержащийся в воздухе водяной пар достигнет насыщения.
f - Относительная влажность воздуха - влажноcть воздуха, измеренная на высоте 2 м над землей.
Te - Эффективная температура - температура, которую ощущает одетый по сезону человек в тени. Характеристика душности погоды. При расчете учитывается влияние влажности воздуха и скорости ветра на теплоощущения человека.
Tes - Эффективная температура на солнце - температура, которую ощущает человек, с поправкой на солнечный нагрев. Характеристика знойности погоды. Зависит от высоты солнца над горизонтом, облачности и скорости ветра. Ночью, в пасмурную погоду, а также при ветре 12 м/с и более поправка равна нулю.
P - Атмосферное давление - приведенное к уровню моря атмосферное давление.
Po - Атмосферное давление - измеренное на уровне метеостанции атмосферное давление.
Tmin - Минимальная температура - минимум температуры воздуха на высоте 2 м над землей.
Tmax - Максимальная температура - максимум температуры воздуха на высоте 2 м над землей.
R - Количество осадков - Количество выпавших осадков, мм. При наведении курсора мыши на число - период времени, за который выпало указанное количество осадков.
S - Снежный покров - Высота снежного покрова, см. При наведении курсора мыши на число - состояние снежного покрова и степень покрытия местности в баллах.